Time,TemperatureF,DewpointF,PressureIn,WindDirection,WindDirectionDegrees,WindSpeedMPH,WindSpeedGustMPH,Humidity,HourlyPrecipIn,Conditions,Clouds,dailyrainin,SoftwareType,DateUTC
2013-02-11 00:02:00,30.8,27.0,30.33,SW,217,0.0,0.0,86,0.00,,,0.00,weatherlink.com 1.10,2013-02-11 05:02:00,
2013-02-11 00:17:00,31.4,28.0,30.33,SW,217,0.0,0.0,87,0.00,,,0.00,weatherlink.com 1.10,2013-02-11 05:17:00,
2013-02-11 00:32:00,31.5,28.0,30.33,SW,217,0.0,0.0,87,0.00,,,0.00,weatherlink.com 1.10,2013-02-11 05:32:00,
2013-02-11 00:47:00,31.8,29.0,30.32,SW,218,0.0,1.0,88,0.00,,,0.00,weatherlink.com 1.10,2013-02-11 05:47:00,
2013-02-11 01:02:00,32.3,29.0,30.31,East,90,0.0,1.0,88,0.00,,,0.00,weatherlink.com 1.10,2013-02-11 06:02:00,
2013-02-11 01:17:00,32.6,29.0,30.30,East,101,0.0,1.0,87,0.00,,,0.00,weatherlink.com 1.10,2013-02-11 06:17:00,
2013-02-11 01:32:00,32.7,29.0,30.29,East,101,0.0,1.0,87,0.00,,,0.00,weatherlink.com 1.10,2013-02-11 06:32:00,
2013-02-11 01:47:00,33.1,29.0,30.29,East,85,0.0,2.0,86,0.00,,,0.00,weatherlink.com 1.10,2013-02-11 06:47:00,
2013-02-11 02:02:00,33.5,29.0,30.30,SSW,205,1.0,2.0,84,0.00,,,0.00,weatherlink.com 1.10,2013-02-11 07:02:00,
2013-02-11 02:17:00,34.0,29.0,30.28,ESE,112,0.0,2.0,81,0.00,,,0.00,weatherlink.com 1.10,2013-02-11 07:17:00,
2013-02-11 02:32:00,34.4,29.0,30.26,SW,218,0.0,1.0,79,0.00,,,0.00,weatherlink.com 1.10,2013-02-11 07:32:00,
2013-02-11 02:47:00,34.4,29.0,30.26,SW,224,0.0,0.0,79,0.00,,,0.00,weatherlink.com 1.10,2013-02-11 07:47:00,
2013-02-11 03:02:00,34.7,29.0,30.25,East,94,0.0,1.0,79,0.00,,,0.00,weatherlink.com 1.10,2013-02-11 08:02:00,
2013-02-11 03:17:00,34.6,29.0,30.25,SSE,150,0.0,1.0,81,0.00,,,0.00,weatherlink.com 1.10,2013-02-11 08:17:00,
2013-02-11 03:32:00,34.9,30.0,30.23,SW,231,0.0,1.0,82,0.00,,,0.00,weatherlink.com 1.10,2013-02-11 08:32:00,
2013-02-11 03:47:00,35.1,30.0,30.23,SSW,194,0.0,1.0,83,0.00,,,0.00,weatherlink.com 1.10,2013-02-11 08:47:00,
2013-02-11 04:02:00,35.4,31.0,30.22,ESE,117,0.0,2.0,84,0.00,,,0.00,weatherlink.com 1.10,2013-02-11 09:02:00,
2013-02-11 04:17:00,35.9,32.0,30.21,NNE,24,0.0,1.0,85,0.00,,,0.00,weatherlink.com 1.10,2013-02-11 09:17:00,
2013-02-11 04:32:00,36.0,32.0,30.21,NE,48,1.0,1.0,86,0.00,,,0.00,weatherlink.com 1.10,2013-02-11 09:32:00,
2013-02-11 04:47:00,35.8,32.0,30.20,NE,49,0.0,0.0,87,0.00,,,0.00,weatherlink.com 1.10,2013-02-11 09:47:00,
2013-02-11 05:02:00,35.7,33.0,30.19,NE,49,0.0,0.0,88,0.00,,,0.00,weatherlink.com 1.10,2013-02-11 10:02:00,
2013-02-11 05:17:00,36.3,33.0,30.18,NE,49,0.0,1.0,89,0.00,,,0.00,weatherlink.com 1.10,2013-02-11 10:17:00,
2013-02-11 05:32:00,36.6,34.0,30.17,ESE,122,0.0,1.0,89,0.00,,,0.00,weatherlink.com 1.10,2013-02-11 10:32:00,
2013-02-11 05:48:00,36.8,34.0,30.15,ESE,120,1.0,2.0,90,0.00,,,0.00,weatherlink.com 1.10,2013-02-11 10:48:00,
2013-02-11 06:03:00,37.3,35.0,30.16,East,101,0.0,1.0,91,0.00,,,0.00,weatherlink.com 1.10,2013-02-11 11:03:00,
2013-02-11 06:18:00,37.4,35.0,30.15,ESE,117,2.0,2.0,92,0.00,,,0.00,weatherlink.com 1.10,2013-02-11 11:18:00,
2013-02-11 06:33:00,37.7,36.0,30.14,ESE,113,2.0,4.0,93,0.00,,,0.00,weatherlink.com 1.10,2013-02-11 11:33:00,
2013-02-11 06:48:00,38.0,37.0,30.14,SE,143,0.0,1.0,94,0.00,,,0.00,weatherlink.com 1.10,2013-02-11 11:48:00,
2013-02-11 07:03:00,38.5,37.0,30.12,ESE,122,0.0,2.0,94,0.00,,,0.00,weatherlink.com 1.10,2013-02-11 12:03:00,
2013-02-11 07:18:00,38.6,37.0,30.10,ESE,105,1.0,1.0,94,0.00,,,0.00,weatherlink.com 1.10,2013-02-11 12:18:00,
2013-02-11 07:33:00,38.6,37.0,30.09,ESE,105,0.0,1.0,95,0.00,,,0.00,weatherlink.com 1.10,2013-02-11 12:33:00,
2013-02-11 07:48:00,38.8,38.0,30.07,East,89,1.0,3.0,95,0.00,,,0.00,weatherlink.com 1.10,2013-02-11 12:48:00,
2013-02-11 08:03:00,39.2,38.0,30.06,ESE,117,5.0,5.0,95,0.00,,,0.00,weatherlink.com 1.10,2013-02-11 13:03:00,
2013-02-11 08:18:00,39.7,38.0,30.05,ESE,116,1.0,5.0,95,0.00,,,0.00,weatherlink.com 1.10,2013-02-11 13:18:00,
2013-02-11 08:33:00,40.1,39.0,30.03,SE,124,4.0,5.0,95,0.00,,,0.00,weatherlink.com 1.10,2013-02-11 13:33:00,
2013-02-11 08:48:00,40.5,40.0,30.02,East,82,3.0,6.0,96,0.00,,,0.00,weatherlink.com 1.10,2013-02-11 13:48:00,
2013-02-11 09:03:00,41.3,40.0,30.01,ESE,113,3.0,6.0,96,0.00,,,0.00,weatherlink.com 1.10,2013-02-11 14:03:00,
2013-02-11 09:18:00,42.0,41.0,29.99,ESE,121,2.0,5.0,96,0.11,,,0.11,weatherlink.com 1.10,2013-02-11 14:18:00,
2013-02-11 09:33:00,42.7,42.0,29.98,ESE,119,2.0,5.0,96,0.19,,,0.19,weatherlink.com 1.10,2013-02-11 14:33:00,
2013-02-11 09:48:00,43.7,43.0,29.98,SW,214,2.0,7.0,97,0.25,,,0.25,weatherlink.com 1.10,2013-02-11 14:48:00,
2013-02-11 10:03:00,44.7,44.0,29.98,East,93,2.0,9.0,97,0.32,,,0.32,weatherlink.com 1.10,2013-02-11 15:03:00,
2013-02-11 10:18:00,44.9,44.0,29.97,SSW,200,2.0,9.0,97,0.28,,,0.39,weatherlink.com 1.10,2013-02-11 15:18:00,
2013-02-11 10:33:00,44.8,44.0,29.96,WSW,256,2.0,9.0,96,0.24,,,0.43,weatherlink.com 1.10,2013-02-11 15:33:00,
2013-02-11 10:48:00,45.0,44.0,29.95,SE,141,5.0,15.0,97,0.20,,,0.45,weatherlink.com 1.10,2013-02-11 15:48:00,
2013-02-11 11:03:00,45.1,44.0,29.95,SW,233,1.0,10.0,96,0.15,,,0.47,weatherlink.com 1.10,2013-02-11 16:03:00,
2013-02-11 11:18:00,45.3,44.0,29.94,WSW,240,6.0,13.0,96,0.09,,,0.48,weatherlink.com 1.10,2013-02-11 16:18:00,
2013-02-11 11:34:00,45.2,44.0,29.92,SSW,197,2.0,13.0,96,0.05,,,0.48,weatherlink.com 1.10,2013-02-11 16:34:00,
2013-02-11 11:49:00,44.9,44.0,29.91,SW,215,2.0,8.0,96,0.03,,,0.49,weatherlink.com 1.10,2013-02-11 16:49:00,
2013-02-11 12:04:00,44.7,44.0,29.90,NW,305,2.0,6.0,96,0.02,,,0.00,weatherlink.com 1.10,2013-02-11 17:04:00,
2013-02-11 12:19:00,44.5,44.0,29.89,West,269,1.0,5.0,96,0.01,,,0.00,weatherlink.com 1.10,2013-02-11 17:19:00,
2013-02-11 12:34:00,44.7,44.0,29.87,SSW,208,0.0,2.0,97,0.01,,,0.00,weatherlink.com 1.10,2013-02-11 17:34:00,
2013-02-11 12:49:00,44.7,44.0,29.86,WSW,238,0.0,1.0,96,0.00,,,0.00,weatherlink.com 1.10,2013-02-11 17:49:00,
2013-02-11 13:04:00,44.7,44.0,29.84,SW,214,1.0,2.0,96,0.00,,,0.00,weatherlink.com 1.10,2013-02-11 18:04:00,
2013-02-11 13:19:00,45.0,44.0,29.82,South,191,0.0,1.0,97,0.00,,,0.00,weatherlink.com 1.10,2013-02-11 18:19:00,
2013-02-11 13:34:00,45.6,45.0,29.80,SSW,193,0.0,1.0,97,0.01,,,0.01,weatherlink.com 1.10,2013-02-11 18:34:00,
2013-02-11 13:49:00,45.3,44.0,29.80,West,263,0.0,1.0,96,0.01,,,0.01,weatherlink.com 1.10,2013-02-11 18:49:00,
2013-02-11 14:04:00,45.1,44.0,29.80,SW,217,0.0,2.0,96,0.01,,,0.01,weatherlink.com 1.10,2013-02-11 19:04:00,
2013-02-11 14:19:00,45.0,44.0,29.80,WSW,246,0.0,1.0,96,0.01,,,0.01,weatherlink.com 1.10,2013-02-11 19:19:00,
2013-02-11 14:34:00,45.0,44.0,29.79,WSW,248,1.0,3.0,96,0.00,,,0.01,weatherlink.com 1.10,2013-02-11 19:34:00,
2013-02-11 14:49:00,44.8,44.0,29.79,West,263,1.0,2.0,96,0.00,,,0.01,weatherlink.com 1.10,2013-02-11 19:49:00,
2013-02-11 15:04:00,44.6,44.0,29.78,West,274,0.0,2.0,96,0.00,,,0.01,weatherlink.com 1.10,2013-02-11 20:04:00,
2013-02-11 15:19:00,44.5,44.0,29.77,SW,229,0.0,1.0,97,0.00,,,0.01,weatherlink.com 1.10,2013-02-11 20:19:00,
2013-02-11 15:34:00,44.3,44.0,29.76,SSE,153,0.0,1.0,97,0.00,,,0.01,weatherlink.com 1.10,2013-02-11 20:34:00,
2013-02-11 15:53:00,43.9,43.0,29.75,SSW,210,0.0,1.0,96,0.01,,,0.02,weatherlink.com 1.10,2013-02-11 20:53:00,
2013-02-11 16:04:00,43.8,43.0,29.73,SE,134,0.0,1.0,97,0.01,,,0.02,weatherlink.com 1.10,2013-02-11 21:04:00,
2013-02-11 16:19:00,43.7,43.0,29.73,ESE,115,0.0,2.0,97,0.01,,,0.02,weatherlink.com 1.10,2013-02-11 21:19:00,
2013-02-11 16:34:00,43.7,43.0,29.72,ESE,115,0.0,0.0,97,0.01,,,0.02,weatherlink.com 1.10,2013-02-11 21:34:00,
2013-02-11 16:49:00,43.6,43.0,29.72,ESE,114,0.0,1.0,97,0.00,,,0.02,weatherlink.com 1.10,2013-02-11 21:49:00,
2013-02-11 17:04:00,43.3,43.0,29.71,ESE,115,0.0,1.0,97,0.00,,,0.02,weatherlink.com 1.10,2013-02-11 22:04:00,
2013-02-11 17:19:00,43.3,43.0,29.71,ESE,115,0.0,0.0,97,0.00,,,0.02,weatherlink.com 1.10,2013-02-11 22:19:00,
2013-02-11 17:34:00,43.2,42.0,29.71,ESE,120,0.0,0.0,97,0.00,,,0.02,weatherlink.com 1.10,2013-02-11 22:34:00,
2013-02-11 17:49:00,43.0,42.0,29.70,ESE,118,0.0,0.0,97,0.00,,,0.02,weatherlink.com 1.10,2013-02-11 22:49:00,
2013-02-11 18:04:00,42.6,42.0,29.69,ESE,119,0.0,0.0,97,0.01,,,0.03,weatherlink.com 1.10,2013-02-11 23:04:00,
2013-02-11 18:19:00,42.3,42.0,29.69,ESE,120,0.0,0.0,97,0.01,,,0.03,weatherlink.com 1.10,2013-02-11 23:19:00,
2013-02-11 18:34:00,42.1,41.0,29.69,ESE,120,0.0,0.0,97,0.01,,,0.03,weatherlink.com 1.10,2013-02-11 23:34:00,
2013-02-11 18:49:00,41.9,41.0,29.68,ESE,120,0.0,0.0,97,0.01,,,0.03,weatherlink.com 1.10,2013-02-11 23:49:00,
2013-02-11 19:04:00,41.8,41.0,29.67,ESE,120,0.0,0.0,97,0.00,,,0.03,weatherlink.com 1.10,2013-02-12 00:04:00,
2013-02-11 19:19:00,41.8,41.0,29.67,South,186,0.0,1.0,97,0.00,,,0.03,weatherlink.com 1.10,2013-02-12 00:19:00,
2013-02-11 19:34:00,41.5,41.0,29.68,South,187,0.0,0.0,97,0.00,,,0.03,weatherlink.com 1.10,2013-02-12 00:34:00,
2013-02-11 19:49:00,41.4,41.0,29.67,South,187,0.0,0.0,97,0.00,,,0.03,weatherlink.com 1.10,2013-02-12 00:49:00,
2013-02-11 20:04:00,41.3,41.0,29.66,South,188,0.0,0.0,97,0.00,,,0.03,weatherlink.com 1.10,2013-02-12 01:04:00,
2013-02-11 20:19:00,41.4,41.0,29.66,South,187,0.0,0.0,97,0.00,,,0.03,weatherlink.com 1.10,2013-02-12 01:19:00,
2013-02-11 20:34:00,41.4,41.0,29.66,South,188,0.0,0.0,97,0.00,,,0.03,weatherlink.com 1.10,2013-02-12 01:34:00,
2013-02-11 20:49:00,41.3,41.0,29.66,South,188,0.0,0.0,97,0.00,,,0.03,weatherlink.com 1.10,2013-02-12 01:49:00,
2013-02-11 21:04:00,41.3,41.0,29.66,South,187,0.0,0.0,97,0.00,,,0.03,weatherlink.com 1.10,2013-02-12 02:04:00,
2013-02-11 21:19:00,41.2,40.0,29.66,South,187,0.0,0.0,97,0.00,,,0.03,weatherlink.com 1.10,2013-02-12 02:19:00,
2013-02-11 21:34:00,41.3,41.0,29.66,South,187,0.0,0.0,97,0.00,,,0.03,weatherlink.com 1.10,2013-02-12 02:34:00,
2013-02-11 21:49:00,41.5,41.0,29.66,South,187,0.0,1.0,97,0.00,,,0.03,weatherlink.com 1.10,2013-02-12 02:49:00,
2013-02-11 22:04:00,43.7,43.0,29.68,West,270,0.0,3.0,98,0.01,,,0.04,weatherlink.com 1.10,2013-02-12 03:04:00,
2013-02-11 22:19:00,44.7,44.0,29.69,WSW,248,0.0,7.0,98,0.01,,,0.04,weatherlink.com 1.10,2013-02-12 03:19:00,
2013-02-11 22:34:00,44.2,44.0,29.69,WNW,300,2.0,3.0,98,0.01,,,0.04,weatherlink.com 1.10,2013-02-12 03:34:00,
2013-02-11 22:49:00,43.5,43.0,29.68,NW,315,2.0,2.0,97,0.01,,,0.04,weatherlink.com 1.10,2013-02-12 03:49:00,
2013-02-11 23:04:00,43.2,42.0,29.70,WSW,253,0.0,4.0,97,0.00,,,0.04,weatherlink.com 1.10,2013-02-12 04:04:00,
2013-02-11 23:19:00,43.0,42.0,29.70,WNW,284,0.0,4.0,97,0.00,,,0.04,weatherlink.com 1.10,2013-02-12 04:19:00,
2013-02-11 23:35:00,42.7,42.0,29.71,WSW,238,2.0,4.0,97,0.00,,,0.04,weatherlink.com 1.10,2013-02-12 04:35:00,
2013-02-11 23:50:00,42.0,41.0,29.70,WNW,301,1.0,1.0,97,0.00,,,0.04,weatherlink.com 1.10,2013-02-12 04:50:00,